Location: Rumah Dana
(3.1167°N, 113.0167°E)
Time: 04:03:23
(UTC+00:00)

Okean 1-7 - Pass Details

Date: 20 January 2026
Orbit: 566 x 588 km, 82.5° (Epoch: 10 February)

Event Time Altitude Azimuth Distance (km) Brightness Sun altitude
Rises 10:49:59 0° 185° (S) 2,780 6.8 -3.7°
Reaches altitude 10° 10:52:11 10° 185° (S) 1,877 5.9 -4.2°
Maximum altitude 10:56:19 84° 273° (W) 576 3.0 -5.1°
Drops below altitude 10° 11:00:25 10° 2° (N) 1,858 5.3 -6.1°
Sets 11:02:35 0° 3° (N) 2,750 6.2 -6.6°
